Weather History for Rolla, ND

Change the Weather History Date:

Thursday, April 3, 2014

  Actual Average (KRUG) Record (KRUG)
Temperature  
Mean Temperature 24 °F -  
Max Temperature 30 °F 46 °F 77 °F (1988)
Min Temperature 19 °F 23 °F -7 °F (1979)
Degree Days  
Heating Degree Days 40    
Moisture  
Dew Point 23 °F    
Average Humidity 94    
Maximum Humidity 100    
Minimum Humidity 54    
Precipitation  
Precipitation 1.80 in - - ()
Sea Level Pressure  
Sea Level Pressure 30.03 in    
Wind  
Wind Speed 8 mph (NE)    
Max Wind Speed 15 mph    
Max Gust Speed -    
Visibility 6 miles    
Events Snow    
Averages and records for this station are not official NWS values.
T = Trace of Precipitation, MM = Missing Value Source: NWS Daily Summary

Daily Weather History Graph

Daily Weather History Graph

Search for Another Location

Airport:

Trip Planner

Search our weather history database for the weather conditions in past years. The results will help you decide how hot, cold, wet, or windy it might be!

Date:

Astronomy

Apr. 03, 2014 Rise Set
Actual Time 7:11 AM CDT 8:12 PM CDT
Civil Twilight 6:39 AM CDT 8:44 PM CDT
Nautical Twilight 6:01 AM CDT 9:23 PM CDT
Astronomical Twilight 5:20 AM CDT 10:04 PM CDT
Moon 9:25 AM CDT (4/3) No Moon Set
Length of Visible Light 14h 05m
Length of Day
13h 00m
Waxing Crescent, 17% of the Moon is Illuminated
Apr 3
Waxing Crescent
Apr 7
First Quarter
Apr 15
Full
Apr 22
Last Quarter
Apr 29
New

Hourly Weather History & Observations

Time (CDT) Temp. Windchill Dew Point Humidity Pressure Visibility Wind Dir Wind Speed Gust Speed Precip Events Conditions
12:15 AM 24.8 °F 14.6 °F 10.4 °F 54% 30.08 in 10.0 mi SE 10.4 mph - N/A   Overcast
12:55 AM 24.8 °F 16.1 °F 14.0 °F 64% 30.08 in 10.0 mi SSE 8.1 mph - N/A   Overcast
1:15 AM 24.8 °F 15.3 °F 14.0 °F 64% 30.08 in 10.0 mi South 9.2 mph - N/A   Overcast
1:35 AM 23.0 °F 13.1 °F 17.6 °F 80% 30.08 in 2.5 mi South 9.2 mph - N/A   Mostly Cloudy
1:55 AM 21.2 °F 12.6 °F 19.4 °F 93% 30.08 in 1.8 mi South 6.9 mph - 0.01 in Snow Light Snow
2:15 AM 21.2 °F 14.9 °F 21.2 °F 100% 30.07 in 2.0 mi SSE 4.6 mph - 0.01 in Snow Light Snow
2:35 AM 21.2 °F 14.9 °F 21.2 °F 100% 30.07 in 2.5 mi SE 4.6 mph - 0.04 in Snow Light Snow
2:55 AM 21.2 °F 11.7 °F 21.2 °F 100% 30.06 in 2.5 mi SE 8.1 mph - 0.05 in Snow Light Snow
3:15 AM 21.2 °F 13.6 °F 21.2 °F 100% 30.05 in 5.0 mi SE 5.8 mph - 0.01 in Snow Light Snow
3:35 AM 19.4 °F 12.8 °F 19.4 °F 100% 30.05 in 3.0 mi ESE 4.6 mph - 0.04 in Snow Light Snow
3:55 AM 21.2 °F 12.6 °F 21.2 °F 100% 30.05 in 3.0 mi SE 6.9 mph - 0.08 in Snow Light Snow
4:15 AM 19.4 °F 12.8 °F 19.4 °F 100% 30.05 in 5.0 mi ESE 4.6 mph - N/A Snow Light Snow
4:35 AM 19.4 °F 11.5 °F 19.4 °F 100% 30.04 in 5.0 mi ESE 5.8 mph - 0.02 in Snow Light Snow
4:55 AM 19.4 °F 11.5 °F 19.4 °F 100% 30.03 in 5.0 mi East 5.8 mph - 0.03 in Snow Light Snow
5:15 AM 19.4 °F 14.3 °F 19.4 °F 100% 30.03 in 10.0 mi East 3.5 mph - N/A Snow Light Snow
5:35 AM 19.4 °F 11.5 °F 19.4 °F 100% 30.03 in 9.0 mi East 5.8 mph - N/A Snow Light Snow
5:55 AM 19.4 °F 10.4 °F 19.4 °F 100% 30.03 in 2.5 mi ESE 6.9 mph - 0.01 in Snow Light Snow
6:15 AM 19.4 °F 12.8 °F 19.4 °F 100% 30.02 in 4.0 mi East 4.6 mph - N/A Snow Light Snow
6:35 AM 19.4 °F 10.4 °F 19.4 °F 100% 30.01 in 3.0 mi East 6.9 mph - 0.02 in Snow Light Snow
6:55 AM 19.4 °F 10.4 °F 19.4 °F 100% 30.01 in 5.0 mi East 6.9 mph - 0.03 in Snow Light Snow
7:15 AM 19.4 °F 10.4 °F 19.4 °F 100% 30.01 in 4.0 mi East 6.9 mph - N/A Snow Light Snow
7:35 AM 21.2 °F 12.6 °F 21.2 °F 100% 30.01 in 1.8 mi East 6.9 mph - 0.02 in Snow Light Snow
7:55 AM 21.2 °F 13.6 °F 21.2 °F 100% 30.02 in 1.2 mi East 5.8 mph - 0.05 in Snow Light Snow
8:15 AM 21.2 °F 13.6 °F 21.2 °F 100% 30.02 in 1.0 mi East 5.8 mph - 0.04 in Snow Light Snow
8:35 AM 21.2 °F 12.6 °F 21.2 °F 100% 30.02 in 1.2 mi East 6.9 mph - 0.09 in Snow Light Snow
8:55 AM 23.0 °F 15.8 °F 23.0 °F 100% 30.02 in 1.5 mi East 5.8 mph - 0.13 in Snow Light Snow
9:15 AM 23.0 °F 17.0 °F 23.0 °F 100% 30.01 in 1.2 mi ENE 4.6 mph - 0.05 in Snow Light Snow
9:35 AM 23.0 °F 17.0 °F 23.0 °F 100% 30.02 in 1.5 mi ENE 4.6 mph - 0.15 in Snow Light Snow
9:55 AM 23.0 °F 15.8 °F 23.0 °F 100% 30.01 in 1.5 mi NE 5.8 mph - 0.32 in Snow Light Snow
10:15 AM 23.0 °F 17.0 °F 23.0 °F 100% 30.01 in 1.0 mi ENE 4.6 mph - 0.18 in Snow Light Snow
10:35 AM 23.0 °F 17.0 °F 23.0 °F 100% 30.01 in 1.5 mi NE 4.6 mph - 0.35 in Snow Light Snow
10:55 AM 23.0 °F 15.8 °F 23.0 °F 100% 30.01 in 1.2 mi NNE 5.8 mph - 0.56 in Snow Light Snow
11:15 AM 23.0 °F 15.8 °F 23.0 °F 100% 30.02 in 1.2 mi NNE 5.8 mph - 0.13 in Snow Light Snow
11:35 AM 24.8 °F 19.1 °F 24.8 °F 100% 30.01 in 1.2 mi NNE 4.6 mph - 0.31 in Snow Light Snow
11:55 AM 24.8 °F 17.9 °F 24.8 °F 100% 30.01 in 1.8 mi NNE 5.8 mph - 0.43 in Snow Light Snow
12:15 PM 24.8 °F 17.9 °F 24.8 °F 100% 30.01 in 3.0 mi NNE 5.8 mph - 0.03 in Snow Light Snow
12:35 PM 24.8 °F 17.9 °F 24.8 °F 100% 30.01 in 5.0 mi NNE 5.8 mph - 0.05 in Snow Light Snow
12:55 PM 26.6 °F 21.2 °F 24.8 °F 93% 30.01 in 8.0 mi North 4.6 mph - 0.07 in Snow Light Snow
1:15 PM 26.6 °F 20.0 °F 24.8 °F 93% 30.01 in 9.0 mi NNE 5.8 mph - N/A Snow Light Snow
1:35 PM 26.6 °F 21.2 °F 24.8 °F 93% 30.00 in 5.0 mi NNE 4.6 mph - 0.01 in Snow Light Snow
1:55 PM 26.6 °F 21.2 °F 24.8 °F 93% 30.00 in 10.0 mi NNE 4.6 mph - 0.02 in Snow Light Snow
2:15 PM 26.6 °F 20.0 °F 26.6 °F 100% 30.00 in 5.0 mi NNE 5.8 mph - N/A Snow Light Snow
2:35 PM 28.4 °F 22.2 °F 26.6 °F 93% 30.00 in 9.0 mi NNE 5.8 mph - 0.01 in Snow Light Snow
2:55 PM 28.4 °F 23.3 °F 26.6 °F 93% 30.00 in 10.0 mi NNE 4.6 mph - 0.01 in   Scattered Clouds
3:15 PM 28.4 °F 22.2 °F 26.6 °F 93% 30.00 in 10.0 mi NE 5.8 mph - N/A   Mostly Cloudy
3:35 PM 28.4 °F 22.2 °F 26.6 °F 93% 30.00 in 10.0 mi NNE 5.8 mph - N/A   Overcast
3:55 PM 28.4 °F 19.1 °F 26.6 °F 93% 30.00 in 10.0 mi North 10.4 mph - N/A   Overcast
4:15 PM 30.2 °F 20.8 °F 26.6 °F 86% 30.00 in 10.0 mi North 11.5 mph - N/A   Overcast
4:35 PM 30.2 °F 20.8 °F 26.6 °F 86% 30.00 in 10.0 mi North 11.5 mph - N/A   Overcast
4:55 PM 30.2 °F 21.9 °F 24.8 °F 80% 30.00 in 10.0 mi North 9.2 mph - N/A   Overcast
5:15 PM 30.2 °F 21.3 °F 26.6 °F 86% 30.01 in 10.0 mi North 10.4 mph - N/A   Overcast
5:35 PM 30.2 °F 20.8 °F 26.6 °F 86% 30.01 in 10.0 mi North 11.5 mph - N/A   Overcast
5:55 PM 30.2 °F 20.8 °F 26.6 °F 86% 30.01 in 10.0 mi North 11.5 mph - N/A   Overcast
6:15 PM 30.2 °F 20.2 °F 26.6 °F 86% 30.02 in 10.0 mi North 12.7 mph - N/A   Overcast
6:35 PM 28.4 °F 18.5 °F 26.6 °F 93% 30.02 in 10.0 mi North 11.5 mph - N/A   Overcast
6:55 PM 28.4 °F 18.5 °F 26.6 °F 93% 30.03 in 10.0 mi North 11.5 mph - N/A   Overcast
7:15 PM 28.4 °F 18.0 °F 28.4 °F 100% 30.03 in 10.0 mi North 12.7 mph - N/A   Overcast
7:35 PM 28.4 °F 17.5 °F 26.6 °F 93% 30.04 in 10.0 mi North 13.8 mph - N/A   Overcast
7:55 PM 28.4 °F 18.5 °F 28.4 °F 100% 30.04 in 10.0 mi North 11.5 mph - N/A   Overcast
8:15 PM 28.4 °F 18.0 °F 28.4 °F 100% 30.04 in 10.0 mi North 12.7 mph - N/A   Overcast
8:55 PM 28.4 °F 17.0 °F 28.4 °F 100% 30.05 in 10.0 mi NNW 15.0 mph - N/A   Overcast
9:15 PM 28.4 °F 17.5 °F 28.4 °F 100% 30.05 in 10.0 mi North 13.8 mph - N/A   Overcast
9:35 PM 26.6 °F 14.7 °F 26.6 °F 100% 30.05 in 10.0 mi North 15.0 mph - N/A   Overcast
11:15 PM 26.6 °F 15.2 °F 23.0 °F 86% 30.06 in 10.0 mi NNW 13.8 mph - N/A   Overcast
11:35 PM 26.6 °F 15.2 °F 23.0 °F 86% 30.06 in 10.0 mi North 13.8 mph - N/A   Overcast
11:55 PM 26.6 °F 16.2 °F 24.8 °F 93% 30.06 in 10.0 mi North 11.5 mph - N/A   Overcast